Time,TemperatureF,DewpointF,PressureIn,WindDirection,WindDirectionDegrees,WindSpeedMPH,WindSpeedGustMPH,Humidity,HourlyPrecipIn,Conditions,Clouds,dailyrainin,SoftwareType,DateUTC
2013-06-26 00:00:00,77.8,72.6,29.68,SE,142,1.0,8.0,84,0.00,,,0.08,Wunderground v.1.15,2013-06-26 05:00:00,
2013-06-26 00:06:00,77.8,72.6,29.68,SE,134,1.0,8.0,84,0.00,,,0.00,Wunderground v.1.15,2013-06-26 05:06:00,
2013-06-26 00:12:00,77.7,72.8,29.68,SE,132,2.0,8.0,85,0.00,,,0.00,Wunderground v.1.15,2013-06-26 05:12:00,
2013-06-26 00:18:00,77.6,72.7,29.67,ESE,108,3.0,8.0,85,0.00,,,0.00,Wunderground v.1.15,2013-06-26 05:18:00,
2013-06-26 00:24:00,77.4,72.9,29.68,SE,135,2.0,8.0,86,0.00,,,0.00,Wunderground v.1.15,2013-06-26 05:24:00,
2013-06-26 00:30:00,77.3,72.8,29.68,SE,133,2.0,8.0,86,0.00,,,0.00,Wunderground v.1.15,2013-06-26 05:30:00,
2013-06-26 00:36:00,77.4,72.9,29.68,ESE,123,2.0,8.0,86,0.00,,,0.00,Wunderground v.1.15,2013-06-26 05:36:00,
2013-06-26 00:42:00,77.5,73.0,29.67,ESE,108,3.0,8.0,86,0.00,,,0.00,Wunderground v.1.15,2013-06-26 05:42:00,
2013-06-26 00:48:00,77.3,72.8,29.67,ESE,116,3.0,8.0,86,0.00,,,0.00,Wunderground v.1.15,2013-06-26 05:48:00,
2013-06-26 00:54:00,77.1,72.6,29.67,ESE,112,3.0,8.0,86,0.00,,,0.00,Wunderground v.1.15,2013-06-26 05:54:00,
2013-06-26 01:00:00,77.0,72.8,29.66,SE,125,3.0,3.0,87,0.00,,,0.00,Wunderground v.1.15,2013-06-26 06:00:00,
2013-06-26 01:06:00,76.8,72.6,29.66,ESE,115,2.0,8.0,87,0.00,,,0.00,Wunderground v.1.15,2013-06-26 06:06:00,
2013-06-26 01:12:00,75.9,70.7,29.66,ESE,110,3.0,8.0,84,0.00,,,0.00,Wunderground v.1.15,2013-06-26 06:12:00,
2013-06-26 01:18:00,74.8,69.6,29.67,SE,131,2.0,8.0,84,0.00,,,0.00,Wunderground v.1.15,2013-06-26 06:18:00,
2013-06-26 01:24:00,73.5,69.4,29.67,East,91,1.0,8.0,87,0.58,,,0.12,Wunderground v.1.15,2013-06-26 06:24:00,
2013-06-26 01:30:00,72.0,68.9,29.67,North,354,2.0,8.0,90,0.82,,,0.20,Wunderground v.1.15,2013-06-26 06:30:00,
2013-06-26 01:36:00,70.9,68.1,29.67,SE,131,3.0,9.0,91,0.87,,,0.31,Wunderground v.1.15,2013-06-26 06:36:00,
2013-06-26 01:42:00,70.1,67.7,29.69,SE,139,4.0,8.0,92,0.68,,,0.36,Wunderground v.1.15,2013-06-26 06:42:00,
2013-06-26 01:48:00,69.1,66.4,29.69,East,96,5.0,8.0,91,0.21,,,0.37,Wunderground v.1.15,2013-06-26 06:48:00,
2013-06-26 01:54:00,67.5,64.8,29.67,ENE,60,7.0,12.0,91,0.17,,,0.39,Wunderground v.1.15,2013-06-26 06:54:00,
2013-06-26 02:00:00,66.5,64.4,29.68,ESE,121,7.0,7.0,93,0.09,,,0.39,Wunderground v.1.15,2013-06-26 07:00:00,
2013-06-26 02:06:00,66.3,64.5,29.69,ESE,115,4.0,8.0,94,0.05,,,0.39,Wunderground v.1.15,2013-06-26 07:06:00,
2013-06-26 02:12:00,66.4,64.6,29.69,ESE,106,5.0,6.0,94,0.00,,,0.39,Wunderground v.1.15,2013-06-26 07:12:00,
2013-06-26 02:18:00,66.2,64.4,29.69,ESE,121,6.0,8.0,94,0.00,,,0.39,Wunderground v.1.15,2013-06-26 07:18:00,
2013-06-26 02:24:00,66.3,64.8,29.68,SSE,167,4.0,8.0,95,0.00,,,0.39,Wunderground v.1.15,2013-06-26 07:24:00,
2013-06-26 02:30:00,66.6,65.1,29.68,SE,133,2.0,8.0,95,0.00,,,0.39,Wunderground v.1.15,2013-06-26 07:30:00,
2013-06-26 02:36:00,66.7,65.2,29.68,SSE,167,2.0,8.0,95,0.00,,,0.39,Wunderground v.1.15,2013-06-26 07:36:00,
2013-06-26 02:42:00,66.8,65.3,29.69,SSW,211,2.0,8.0,95,0.00,,,0.39,Wunderground v.1.15,2013-06-26 07:42:00,
2013-06-26 02:48:00,66.6,65.4,29.68,SE,126,1.0,8.0,96,0.00,,,0.39,Wunderground v.1.15,2013-06-26 07:48:00,
2013-06-26 02:54:00,66.8,65.6,29.68,ESE,113,2.0,8.0,96,0.00,,,0.39,Wunderground v.1.15,2013-06-26 07:54:00,
2013-06-26 03:00:00,67.2,66.0,29.68,SE,136,3.0,3.0,96,0.00,,,0.39,Wunderground v.1.15,2013-06-26 08:00:00,
2013-06-26 03:06:00,67.3,66.1,29.68,ENE,65,3.0,8.0,96,0.00,,,0.39,Wunderground v.1.15,2013-06-26 08:06:00,
2013-06-26 03:12:00,67.5,66.0,29.68,ESE,122,1.0,8.0,95,0.00,,,0.39,Wunderground v.1.15,2013-06-26 08:12:00,
2013-06-26 03:18:00,67.6,66.1,29.67,SE,134,0.0,8.0,95,0.00,,,0.39,Wunderground v.1.15,2013-06-26 08:18:00,
2013-06-26 03:24:00,67.9,66.1,29.67,ESE,113,2.0,8.0,94,0.00,,,0.39,Wunderground v.1.15,2013-06-26 08:24:00,
2013-06-26 03:30:00,67.9,66.1,29.67,ESE,122,2.0,8.0,94,0.00,,,0.39,Wunderground v.1.15,2013-06-26 08:30:00,
2013-06-26 03:36:00,68.0,66.2,29.67,ESE,113,2.0,8.0,94,0.00,,,0.39,Wunderground v.1.15,2013-06-26 08:36:00,
2013-06-26 03:42:00,68.2,66.1,29.66,SE,141,2.0,8.0,93,0.00,,,0.39,Wunderground v.1.15,2013-06-26 08:42:00,
2013-06-26 03:48:00,68.2,66.1,29.67,SE,140,2.0,8.0,93,0.00,,,0.39,Wunderground v.1.15,2013-06-26 08:48:00,
2013-06-26 03:54:00,68.1,65.7,29.67,SE,124,2.0,8.0,92,0.00,,,0.39,Wunderground v.1.15,2013-06-26 08:54:00,
2013-06-26 04:00:00,68.1,65.7,29.67,ESE,115,4.0,4.0,92,0.00,,,0.39,Wunderground v.1.15,2013-06-26 09:00:00,
2013-06-26 04:06:00,67.9,65.5,29.67,SE,126,5.0,8.0,92,0.00,,,0.39,Wunderground v.1.15,2013-06-26 09:06:00,
2013-06-26 04:12:00,67.6,65.2,29.67,ESE,118,4.0,5.0,92,0.00,,,0.39,Wunderground v.1.15,2013-06-26 09:12:00,
2013-06-26 04:18:00,67.6,65.5,29.68,SE,129,3.0,8.0,93,0.00,,,0.39,Wunderground v.1.15,2013-06-26 09:18:00,
2013-06-26 04:24:00,67.6,65.5,29.67,ESE,122,4.0,8.0,93,0.00,,,0.39,Wunderground v.1.15,2013-06-26 09:24:00,
2013-06-26 04:30:00,67.4,65.6,29.67,ESE,122,4.0,8.0,94,0.00,,,0.39,Wunderground v.1.15,2013-06-26 09:30:00,
2013-06-26 04:36:00,67.2,65.4,29.67,SE,139,4.0,8.0,94,0.00,,,0.39,Wunderground v.1.15,2013-06-26 09:36:00,
2013-06-26 04:42:00,67.1,65.6,29.67,SE,129,3.0,8.0,95,0.00,,,0.39,Wunderground v.1.15,2013-06-26 09:42:00,
2013-06-26 04:48:00,67.0,65.5,29.67,SSE,165,3.0,8.0,95,0.00,,,0.39,Wunderground v.1.15,2013-06-26 09:48:00,
2013-06-26 04:54:00,67.1,65.6,29.66,ESE,119,2.0,8.0,95,0.00,,,0.39,Wunderground v.1.15,2013-06-26 09:54:00,
2013-06-26 05:00:00,67.2,65.7,29.66,SE,131,2.0,8.0,95,0.00,,,0.39,Wunderground v.1.15,2013-06-26 10:00:00,
2013-06-26 05:06:00,67.3,65.5,29.66,SE,126,2.0,8.0,94,0.00,,,0.39,Wunderground v.1.15,2013-06-26 10:06:00,
2013-06-26 05:12:00,67.4,65.6,29.67,SE,129,1.0,8.0,94,0.00,,,0.39,Wunderground v.1.15,2013-06-26 10:12:00,
2013-06-26 05:18:00,67.5,65.4,29.67,ESE,120,2.0,8.0,93,0.00,,,0.39,Wunderground v.1.15,2013-06-26 10:18:00,
2013-06-26 05:24:00,67.7,65.6,29.68,SE,138,2.0,8.0,93,0.00,,,0.39,Wunderground v.1.15,2013-06-26 10:24:00,
2013-06-26 05:30:00,67.8,65.7,29.68,SSE,160,1.0,1.0,93,0.00,,,0.39,Wunderground v.1.15,2013-06-26 10:30:00,
2013-06-26 05:36:00,67.8,65.4,29.68,SE,137,1.0,8.0,92,0.00,,,0.39,Wunderground v.1.15,2013-06-26 10:36:00,
2013-06-26 05:42:00,67.9,65.5,29.68,SE,126,1.0,8.0,92,0.00,,,0.39,Wunderground v.1.15,2013-06-26 10:42:00,
2013-06-26 05:48:00,67.9,65.5,29.68,SE,129,1.0,8.0,92,0.00,,,0.39,Wunderground v.1.15,2013-06-26 10:48:00,
2013-06-26 05:54:00,68.0,65.6,29.69,SSE,158,2.0,8.0,92,0.00,,,0.40,Wunderground v.1.15,2013-06-26 10:54:00,
2013-06-26 06:00:00,67.9,65.5,29.69,ESE,122,1.0,8.0,92,0.00,,,0.40,Wunderground v.1.15,2013-06-26 11:00:00,
2013-06-26 06:06:00,67.9,65.5,29.69,SE,124,1.0,8.0,92,0.00,,,0.40,Wunderground v.1.15,2013-06-26 11:06:00,
2013-06-26 06:12:00,67.8,65.4,29.69,SE,129,2.0,8.0,92,0.00,,,0.40,Wunderground v.1.15,2013-06-26 11:12:00,
2013-06-26 06:18:00,67.7,65.3,29.69,ESE,122,2.0,8.0,92,0.00,,,0.40,Wunderground v.1.15,2013-06-26 11:18:00,
2013-06-26 06:24:00,67.7,65.3,29.68,SE,126,1.0,8.0,92,0.00,,,0.40,Wunderground v.1.15,2013-06-26 11:24:00,
2013-06-26 06:30:00,67.7,65.6,29.69,SSE,150,2.0,2.0,93,0.00,,,0.40,Wunderground v.1.15,2013-06-26 11:30:00,
2013-06-26 06:36:00,67.7,65.6,29.68,SSE,152,2.0,8.0,93,0.00,,,0.40,Wunderground v.1.15,2013-06-26 11:36:00,
2013-06-26 06:42:00,67.6,65.5,29.68,South,169,1.0,8.0,93,0.00,,,0.40,Wunderground v.1.15,2013-06-26 11:42:00,
2013-06-26 06:48:00,67.7,65.3,29.68,SSE,160,1.0,8.0,92,0.00,,,0.40,Wunderground v.1.15,2013-06-26 11:48:00,
2013-06-26 06:54:00,67.8,65.4,29.68,SSW,197,1.0,8.0,92,0.00,,,0.40,Wunderground v.1.15,2013-06-26 11:54:00,
2013-06-26 07:00:00,68.1,65.4,29.68,South,169,1.0,8.0,91,0.00,,,0.40,Wunderground v.1.15,2013-06-26 12:00:00,
2013-06-26 07:06:00,68.4,65.4,29.67,SSE,167,1.0,8.0,90,0.00,,,0.40,Wunderground v.1.15,2013-06-26 12:06:00,
2013-06-26 07:12:00,68.7,65.0,29.68,SSW,193,2.0,8.0,88,0.00,,,0.40,Wunderground v.1.15,2013-06-26 12:12:00,
2013-06-26 07:18:00,69.0,65.3,29.67,SSE,155,2.0,8.0,88,0.00,,,0.40,Wunderground v.1.15,2013-06-26 12:18:00,
2013-06-26 07:24:00,69.3,65.3,29.68,SSW,197,2.0,8.0,87,0.00,,,0.40,Wunderground v.1.15,2013-06-26 12:24:00,
2013-06-26 07:30:00,69.5,65.1,29.68,SSE,150,2.0,8.0,86,0.00,,,0.40,Wunderground v.1.15,2013-06-26 12:30:00,
2013-06-26 07:36:00,69.7,65.3,29.68,ESE,115,2.0,8.0,86,0.00,,,0.40,Wunderground v.1.15,2013-06-26 12:36:00,
2013-06-26 07:42:00,70.0,65.3,29.68,SSE,161,2.0,8.0,85,0.00,,,0.40,Wunderground v.1.15,2013-06-26 12:42:00,
2013-06-26 07:48:00,70.3,65.6,29.68,SSE,149,2.0,8.0,85,0.00,,,0.40,Wunderground v.1.15,2013-06-26 12:48:00,
2013-06-26 07:54:00,70.5,65.4,29.69,SSE,162,1.0,8.0,84,0.00,,,0.40,Wunderground v.1.15,2013-06-26 12:54:00,
2013-06-26 08:00:00,70.6,65.5,29.69,SE,133,0.0,8.0,84,0.00,,,0.40,Wunderground v.1.15,2013-06-26 13:00:00,
2013-06-26 08:06:00,70.8,65.7,29.69,SSE,152,1.0,8.0,84,0.00,,,0.40,Wunderground v.1.15,2013-06-26 13:06:00,
2013-06-26 08:12:00,70.9,65.5,29.69,SE,136,1.0,8.0,83,0.00,,,0.40,Wunderground v.1.15,2013-06-26 13:12:00,
2013-06-26 08:18:00,71.0,65.9,29.69,SE,132,1.0,8.0,84,0.00,,,0.40,Wunderground v.1.15,2013-06-26 13:18:00,
2013-06-26 08:24:00,71.0,65.9,29.69,SE,146,1.0,8.0,84,0.00,,,0.40,Wunderground v.1.15,2013-06-26 13:24:00,
2013-06-26 08:30:00,71.0,65.9,29.69,SE,136,2.0,2.0,84,0.00,,,0.40,Wunderground v.1.15,2013-06-26 13:30:00,
2013-06-26 08:36:00,71.1,66.0,29.69,SSE,147,1.0,8.0,84,0.00,,,0.40,Wunderground v.1.15,2013-06-26 13:36:00,
2013-06-26 08:42:00,71.1,66.0,29.70,SE,143,0.0,8.0,84,0.00,,,0.40,Wunderground v.1.15,2013-06-26 13:42:00,
2013-06-26 08:48:00,71.1,66.0,29.71,SSW,212,0.0,8.0,84,0.00,,,0.40,Wunderground v.1.15,2013-06-26 13:48:00,
2013-06-26 08:54:00,71.1,66.0,29.71,SSE,162,0.0,8.0,84,0.00,,,0.40,Wunderground v.1.15,2013-06-26 13:54:00,
2013-06-26 09:00:00,71.2,66.5,29.72,South,181,0.0,8.0,85,0.00,,,0.40,Wunderground v.1.15,2013-06-26 14:00:00,
2013-06-26 09:06:00,71.3,66.6,29.72,SSE,158,1.0,8.0,85,0.00,,,0.40,Wunderground v.1.15,2013-06-26 14:06:00,
2013-06-26 09:12:00,71.5,67.1,29.71,SE,146,1.0,8.0,86,0.00,,,0.40,Wunderground v.1.15,2013-06-26 14:12:00,
2013-06-26 09:18:00,71.6,66.8,29.72,SSE,148,0.0,8.0,85,0.00,,,0.40,Wunderground v.1.15,2013-06-26 14:18:00,
2013-06-26 09:24:00,71.8,67.4,29.72,South,183,0.0,8.0,86,0.00,,,0.40,Wunderground v.1.15,2013-06-26 14:24:00,
2013-06-26 09:30:00,72.0,67.2,29.72,South,191,0.0,8.0,85,0.00,,,0.40,Wunderground v.1.15,2013-06-26 14:30:00,
2013-06-26 09:36:00,72.3,67.2,29.72,SW,219,0.0,8.0,84,0.00,,,0.40,Wunderground v.1.15,2013-06-26 14:36:00,
2013-06-26 09:42:00,72.6,67.1,29.72,SSW,205,1.0,8.0,83,0.00,,,0.40,Wunderground v.1.15,2013-06-26 14:42:00,
2013-06-26 09:48:00,72.9,67.4,29.71,SSE,158,1.0,8.0,83,0.00,,,0.40,Wunderground v.1.15,2013-06-26 14:48:00,
2013-06-26 09:54:00,73.3,67.1,29.71,SSE,163,1.0,8.0,81,0.00,,,0.40,Wunderground v.1.15,2013-06-26 14:54:00,
2013-06-26 10:00:00,73.8,67.6,29.72,SSE,166,1.0,8.0,81,0.00,,,0.40,Wunderground v.1.15,2013-06-26 15:00:00,
2013-06-26 10:06:00,74.6,68.0,29.72,SSE,160,1.0,8.0,80,0.00,,,0.40,Wunderground v.1.15,2013-06-26 15:06:00,
2013-06-26 10:12:00,75.0,67.3,29.72,SSW,208,1.0,8.0,77,0.00,,,0.40,Wunderground v.1.15,2013-06-26 15:12:00,
2013-06-26 10:18:00,75.1,67.4,29.71,SE,139,1.0,8.0,77,0.00,,,0.40,Wunderground v.1.15,2013-06-26 15:18:00,
2013-06-26 10:24:00,74.9,67.6,29.71,SSE,163,1.0,8.0,78,0.00,,,0.40,Wunderground v.1.15,2013-06-26 15:24:00,
2013-06-26 10:30:00,74.9,67.2,29.72,SE,133,1.0,1.0,77,0.00,,,0.40,Wunderground v.1.15,2013-06-26 15:30:00,
2013-06-26 10:36:00,75.1,67.4,29.71,SE,144,1.0,8.0,77,0.00,,,0.40,Wunderground v.1.15,2013-06-26 15:36:00,
2013-06-26 10:42:00,75.1,67.4,29.70,SE,136,2.0,8.0,77,0.00,,,0.40,Wunderground v.1.15,2013-06-26 15:42:00,
2013-06-26 10:48:00,75.2,68.2,29.71,SE,135,2.0,8.0,79,0.00,,,0.40,Wunderground v.1.15,2013-06-26 15:48:00,
2013-06-26 10:54:00,75.4,68.1,29.70,SSE,162,2.0,8.0,78,0.00,,,0.40,Wunderground v.1.15,2013-06-26 15:54:00,
2013-06-26 11:00:00,75.8,68.4,29.69,SE,128,3.0,8.0,78,0.00,,,0.40,Wunderground v.1.15,2013-06-26 16:00:00,
2013-06-26 11:06:00,76.5,68.7,29.68,SE,145,3.0,8.0,77,0.00,,,0.40,Wunderground v.1.15,2013-06-26 16:06:00,
2013-06-26 11:12:00,76.5,69.1,29.68,SSE,155,3.0,8.0,78,0.00,,,0.40,Wunderground v.1.15,2013-06-26 16:12:00,
2013-06-26 11:18:00,76.2,68.8,29.68,SE,131,3.0,8.0,78,0.00,,,0.40,Wunderground v.1.15,2013-06-26 16:18:00,
2013-06-26 11:24:00,76.0,69.0,29.69,SE,131,3.0,8.0,79,0.00,,,0.40,Wunderground v.1.15,2013-06-26 16:24:00,
2013-06-26 11:30:00,75.9,69.3,29.71,ESE,114,2.0,8.0,80,0.00,,,0.40,Wunderground v.1.15,2013-06-26 16:30:00,
2013-06-26 11:36:00,75.8,69.6,29.71,ESE,113,1.0,8.0,81,0.00,,,0.40,Wunderground v.1.15,2013-06-26 16:36:00,
2013-06-26 11:42:00,75.4,69.2,29.71,ESE,113,1.0,8.0,81,0.00,,,0.40,Wunderground v.1.15,2013-06-26 16:42:00,
2013-06-26 11:48:00,75.4,69.2,29.71,SE,131,0.0,8.0,81,0.00,,,0.40,Wunderground v.1.15,2013-06-26 16:48:00,
2013-06-26 11:54:00,75.4,69.2,29.71,SSW,205,1.0,8.0,81,0.00,,,0.40,Wunderground v.1.15,2013-06-26 16:54:00,
2013-06-26 12:00:00,75.5,69.3,29.71,SSW,200,2.0,2.0,81,0.00,,,0.40,Wunderground v.1.15,2013-06-26 17:00:00,
2013-06-26 12:06:00,75.8,69.6,29.71,South,173,2.0,8.0,81,0.00,,,0.40,Wunderground v.1.15,2013-06-26 17:06:00,
2013-06-26 12:12:00,76.4,70.5,29.71,SSE,166,1.0,8.0,82,0.00,,,0.40,Wunderground v.1.15,2013-06-26 17:12:00,
2013-06-26 12:18:00,77.0,70.7,29.72,SSW,205,1.0,8.0,81,0.00,,,0.40,Wunderground v.1.15,2013-06-26 17:18:00,
2013-06-26 12:24:00,77.5,70.8,29.72,WSW,255,1.0,8.0,80,0.00,,,0.40,Wunderground v.1.15,2013-06-26 17:24:00,
2013-06-26 12:30:00,77.9,71.2,29.72,SSE,155,1.0,8.0,80,0.00,,,0.40,Wunderground v.1.15,2013-06-26 17:30:00,
2013-06-26 12:36:00,78.2,71.5,29.72,SSE,158,1.0,8.0,80,0.00,,,0.40,Wunderground v.1.15,2013-06-26 17:36:00,
2013-06-26 12:42:00,78.8,72.5,29.72,SSE,155,1.0,8.0,81,0.00,,,0.40,Wunderground v.1.15,2013-06-26 17:42:00,
2013-06-26 12:48:00,79.9,73.2,29.72,SW,217,1.0,8.0,80,0.00,,,0.40,Wunderground v.1.15,2013-06-26 17:48:00,
2013-06-26 12:54:00,80.5,73.0,29.72,SW,232,2.0,8.0,78,0.00,,,0.40,Wunderground v.1.15,2013-06-26 17:54:00,
2013-06-26 13:00:00,81.1,73.2,29.71,SSW,196,2.0,8.0,77,0.00,,,0.40,Wunderground v.1.15,2013-06-26 18:00:00,
2013-06-26 13:06:00,81.7,73.4,29.71,SSW,193,2.0,8.0,76,0.00,,,0.40,Wunderground v.1.15,2013-06-26 18:06:00,
2013-06-26 13:12:00,82.1,73.4,29.71,SE,135,3.0,8.0,75,0.00,,,0.40,Wunderground v.1.15,2013-06-26 18:12:00,
2013-06-26 13:18:00,82.6,73.9,29.71,West,281,2.0,8.0,75,0.00,,,0.40,Wunderground v.1.15,2013-06-26 18:18:00,
2013-06-26 13:24:00,82.3,73.2,29.72,WSW,242,3.0,8.0,74,0.00,,,0.40,Wunderground v.1.15,2013-06-26 18:24:00,
2013-06-26 13:30:00,81.6,73.3,29.72,WNW,300,3.0,8.0,76,0.00,,,0.40,Wunderground v.1.15,2013-06-26 18:30:00,
2013-06-26 13:36:00,81.6,74.1,29.71,SW,226,2.0,8.0,78,0.00,,,0.40,Wunderground v.1.15,2013-06-26 18:36:00,
2013-06-26 13:42:00,81.8,73.9,29.71,SW,218,1.0,8.0,77,0.00,,,0.40,Wunderground v.1.15,2013-06-26 18:42:00,
2013-06-26 13:48:00,82.8,74.5,29.70,SW,217,1.0,8.0,76,0.00,,,0.40,Wunderground v.1.15,2013-06-26 18:48:00,
2013-06-26 13:54:00,83.3,74.5,29.71,SW,214,1.0,8.0,75,0.00,,,0.40,Wunderground v.1.15,2013-06-26 18:54:00,
2013-06-26 14:00:00,83.0,74.3,29.71,West,262,2.0,8.0,75,0.00,,,0.40,Wunderground v.1.15,2013-06-26 19:00:00,
2013-06-26 14:06:00,83.4,74.2,29.71,SW,232,2.0,8.0,74,0.00,,,0.40,Wunderground v.1.15,2013-06-26 19:06:00,
2013-06-26 14:12:00,83.8,74.2,29.70,WSW,248,2.0,8.0,73,0.00,,,0.40,Wunderground v.1.15,2013-06-26 19:12:00,
2013-06-26 14:18:00,83.8,74.2,29.71,WNW,286,2.0,8.0,73,0.00,,,0.40,Wunderground v.1.15,2013-06-26 19:18:00,
2013-06-26 14:24:00,83.7,74.5,29.71,NW,315,1.0,8.0,74,0.00,,,0.40,Wunderground v.1.15,2013-06-26 19:24:00,
2013-06-26 14:30:00,82.6,73.9,29.70,SW,233,1.0,1.0,75,0.00,,,0.40,Wunderground v.1.15,2013-06-26 19:30:00,
2013-06-26 14:36:00,82.2,73.9,29.71,SSW,205,1.0,8.0,76,0.00,,,0.40,Wunderground v.1.15,2013-06-26 19:36:00,
2013-06-26 14:42:00,82.0,74.1,29.71,SSE,158,0.0,8.0,77,0.00,,,0.40,Wunderground v.1.15,2013-06-26 19:42:00,
2013-06-26 14:48:00,81.8,74.6,29.71,SSE,158,0.0,8.0,79,0.00,,,0.40,Wunderground v.1.15,2013-06-26 19:48:00,
2013-06-26 14:54:00,81.8,74.6,29.71,SSE,158,0.0,8.0,79,0.00,,,0.40,Wunderground v.1.15,2013-06-26 19:54:00,
2013-06-26 15:00:00,81.5,74.4,29.69,SE,140,0.0,8.0,79,0.00,,,0.40,Wunderground v.1.15,2013-06-26 20:00:00,
2013-06-26 15:06:00,81.1,74.3,29.70,SSE,155,1.0,8.0,80,0.00,,,0.40,Wunderground v.1.15,2013-06-26 20:06:00,
2013-06-26 15:12:00,81.0,74.2,29.69,South,177,0.0,8.0,80,0.00,,,0.40,Wunderground v.1.15,2013-06-26 20:12:00,
2013-06-26 15:18:00,80.9,74.9,29.69,South,178,0.0,8.0,82,0.00,,,0.40,Wunderground v.1.15,2013-06-26 20:18:00,
2013-06-26 15:24:00,80.6,75.0,29.69,South,177,0.0,8.0,83,0.00,,,0.40,Wunderground v.1.15,2013-06-26 20:24:00,
2013-06-26 15:30:00,80.4,75.5,29.70,South,177,0.0,8.0,85,0.00,,,0.40,Wunderground v.1.15,2013-06-26 20:30:00,
2013-06-26 15:36:00,80.6,75.3,29.70,South,178,0.0,8.0,84,0.00,,,0.40,Wunderground v.1.15,2013-06-26 20:36:00,
2013-06-26 15:42:00,80.9,75.2,29.70,South,177,0.0,8.0,83,0.00,,,0.40,Wunderground v.1.15,2013-06-26 20:42:00,
2013-06-26 15:48:00,81.3,74.9,29.70,South,182,0.0,8.0,81,0.00,,,0.40,Wunderground v.1.15,2013-06-26 20:48:00,
2013-06-26 15:54:00,82.0,74.5,29.70,West,264,0.0,8.0,78,0.00,,,0.40,Wunderground v.1.15,2013-06-26 20:54:00,
2013-06-26 16:00:00,82.7,74.8,29.70,SW,232,0.0,8.0,77,0.00,,,0.40,Wunderground v.1.15,2013-06-26 21:00:00,
2013-06-26 16:06:00,83.2,75.2,29.71,SSW,212,1.0,8.0,77,0.00,,,0.40,Wunderground v.1.15,2013-06-26 21:06:00,
2013-06-26 16:12:00,84.6,75.8,29.71,SE,125,1.0,8.0,75,0.00,,,0.40,Wunderground v.1.15,2013-06-26 21:12:00,
2013-06-26 16:18:00,85.3,76.5,29.71,SE,135,0.0,8.0,75,0.00,,,0.40,Wunderground v.1.15,2013-06-26 21:18:00,
2013-06-26 16:24:00,85.4,75.3,29.71,SSE,149,1.0,8.0,72,0.00,,,0.40,Wunderground v.1.15,2013-06-26 21:24:00,
2013-06-26 16:30:00,84.7,75.5,29.72,SSW,195,1.0,8.0,74,0.00,,,0.40,Wunderground v.1.15,2013-06-26 21:30:00,
2013-06-26 16:36:00,84.8,75.6,29.72,SSW,210,0.0,8.0,74,0.00,,,0.40,Wunderground v.1.15,2013-06-26 21:36:00,
2013-06-26 16:42:00,85.4,75.3,29.72,SW,222,0.0,8.0,72,0.00,,,0.40,Wunderground v.1.15,2013-06-26 21:42:00,
2013-06-26 16:48:00,85.4,75.3,29.72,SW,221,0.0,8.0,72,0.00,,,0.40,Wunderground v.1.15,2013-06-26 21:48:00,
2013-06-26 16:54:00,85.5,75.0,29.72,SW,214,0.0,8.0,71,0.00,,,0.40,Wunderground v.1.15,2013-06-26 21:54:00,
2013-06-26 17:00:00,85.3,74.8,29.72,SW,231,1.0,1.0,71,0.00,,,0.40,Wunderground v.1.15,2013-06-26 22:00:00,
2013-06-26 17:06:00,85.8,74.9,29.72,West,273,1.0,8.0,70,0.00,,,0.40,Wunderground v.1.15,2013-06-26 22:06:00,
2013-06-26 17:12:00,86.5,75.5,29.71,WSW,257,1.0,8.0,70,0.00,,,0.40,Wunderground v.1.15,2013-06-26 22:12:00,
2013-06-26 17:18:00,87.0,76.0,29.71,SE,132,1.0,8.0,70,0.00,,,0.40,Wunderground v.1.15,2013-06-26 22:18:00,
2013-06-26 17:24:00,87.0,75.6,29.71,WSW,252,1.0,8.0,69,0.00,,,0.40,Wunderground v.1.15,2013-06-26 22:24:00,
2013-06-26 17:30:00,86.9,75.5,29.71,West,277,2.0,2.0,69,0.00,,,0.40,Wunderground v.1.15,2013-06-26 22:30:00,
2013-06-26 17:36:00,87.3,75.4,29.71,SW,221,1.0,8.0,68,0.00,,,0.40,Wunderground v.1.15,2013-06-26 22:36:00,
2013-06-26 17:42:00,87.6,75.7,29.71,WNW,302,1.0,8.0,68,0.00,,,0.40,Wunderground v.1.15,2013-06-26 22:42:00,
2013-06-26 17:48:00,87.3,75.0,29.70,West,260,1.0,8.0,67,0.00,,,0.40,Wunderground v.1.15,2013-06-26 22:48:00,
2013-06-26 17:54:00,87.3,75.9,29.70,WSW,250,2.0,8.0,69,0.00,,,0.40,Wunderground v.1.15,2013-06-26 22:54:00,
2013-06-26 18:00:00,87.7,74.9,29.70,WNW,302,1.0,8.0,66,0.00,,,0.40,Wunderground v.1.15,2013-06-26 23:00:00,
2013-06-26 18:06:00,87.5,75.2,29.70,WSW,252,0.0,8.0,67,0.00,,,0.40,Wunderground v.1.15,2013-06-26 23:06:00,
2013-06-26 18:12:00,87.3,74.5,29.70,WSW,256,1.0,8.0,66,0.00,,,0.40,Wunderground v.1.15,2013-06-26 23:12:00,
2013-06-26 18:18:00,87.3,75.9,29.70,WSW,256,1.0,8.0,69,0.00,,,0.40,Wunderground v.1.15,2013-06-26 23:18:00,
2013-06-26 18:24:00,87.1,75.7,29.70,West,273,1.0,8.0,69,0.00,,,0.40,Wunderground v.1.15,2013-06-26 23:24:00,
2013-06-26 18:30:00,87.2,74.9,29.70,WSW,255,1.0,8.0,67,0.00,,,0.40,Wunderground v.1.15,2013-06-26 23:30:00,
2013-06-26 18:36:00,87.2,74.9,29.70,WSW,256,1.0,8.0,67,0.00,,,0.40,Wunderground v.1.15,2013-06-26 23:36:00,
2013-06-26 18:42:00,87.5,75.6,29.70,WNW,283,1.0,8.0,68,0.00,,,0.40,Wunderground v.1.15,2013-06-26 23:42:00,
2013-06-26 18:48:00,87.4,75.5,29.70,WNW,288,1.0,8.0,68,0.00,,,0.40,Wunderground v.1.15,2013-06-26 23:48:00,
2013-06-26 18:54:00,87.2,75.3,29.70,WNW,288,1.0,8.0,68,0.00,,,0.40,Wunderground v.1.15,2013-06-26 23:54:00,
2013-06-26 19:00:00,87.4,75.5,29.70,West,264,1.0,1.0,68,0.00,,,0.40,Wunderground v.1.15,2013-06-27 00:00:00,
2013-06-26 19:06:00,87.7,75.4,29.70,West,278,0.0,8.0,67,0.00,,,0.40,Wunderground v.1.15,2013-06-27 00:06:00,
2013-06-26 19:12:00,87.1,75.3,29.70,NNW,327,1.0,8.0,68,0.00,,,0.40,Wunderground v.1.15,2013-06-27 00:12:00,
2013-06-26 19:18:00,87.0,75.6,29.69,West,280,1.0,8.0,69,0.00,,,0.40,Wunderground v.1.15,2013-06-27 00:18:00,
2013-06-26 19:24:00,86.9,75.9,29.70,WNW,288,1.0,8.0,70,0.00,,,0.40,Wunderground v.1.15,2013-06-27 00:24:00,
2013-06-26 19:30:00,87.0,76.0,29.70,NE,37,1.0,8.0,70,0.00,,,0.40,Wunderground v.1.15,2013-06-27 00:30:00,
2013-06-26 19:36:00,87.1,76.1,29.70,North,11,0.0,8.0,70,0.00,,,0.40,Wunderground v.1.15,2013-06-27 00:36:00,
2013-06-26 19:42:00,87.0,75.2,29.70,WNW,302,0.0,8.0,68,0.00,,,0.40,Wunderground v.1.15,2013-06-27 00:42:00,
2013-06-26 19:48:00,86.7,75.3,29.70,SSE,156,1.0,8.0,69,0.00,,,0.40,Wunderground v.1.15,2013-06-27 00:48:00,
2013-06-26 19:54:00,86.3,74.5,29.70,WNW,283,1.0,8.0,68,0.00,,,0.40,Wunderground v.1.15,2013-06-27 00:54:00,
2013-06-26 20:00:00,85.4,72.7,29.71,West,281,1.0,1.0,66,0.00,,,0.40,Wunderground v.1.15,2013-06-27 01:00:00,
2013-06-26 20:06:00,84.4,72.2,29.71,WNW,294,1.0,8.0,67,0.00,,,0.40,Wunderground v.1.15,2013-06-27 01:06:00,
2013-06-26 20:12:00,83.6,71.5,29.71,SW,221,1.0,8.0,67,0.00,,,0.40,Wunderground v.1.15,2013-06-27 01:12:00,
2013-06-26 20:18:00,83.0,70.9,29.72,NW,307,1.0,8.0,67,0.00,,,0.40,Wunderground v.1.15,2013-06-27 01:18:00,
2013-06-26 20:24:00,82.5,70.9,29.72,NW,310,0.0,8.0,68,0.00,,,0.40,Wunderground v.1.15,2013-06-27 01:24:00,
2013-06-26 20:30:00,82.1,70.9,29.73,ENE,70,0.0,8.0,69,0.00,,,0.40,Wunderground v.1.15,2013-06-27 01:30:00,
2013-06-26 20:36:00,81.5,70.8,29.73,SE,142,0.0,8.0,70,0.00,,,0.40,Wunderground v.1.15,2013-06-27 01:36:00,
2013-06-26 20:42:00,81.0,70.3,29.73,NW,308,0.0,8.0,70,0.00,,,0.40,Wunderground v.1.15,2013-06-27 01:42:00,
2013-06-26 20:48:00,80.6,70.3,29.74,WNW,284,0.0,8.0,71,0.00,,,0.40,Wunderground v.1.15,2013-06-27 01:48:00,
2013-06-26 20:54:00,80.2,69.9,29.74,WNW,296,0.0,8.0,71,0.00,,,0.40,Wunderground v.1.15,2013-06-27 01:54:00,
2013-06-26 21:00:00,79.9,69.7,29.74,West,276,0.0,8.0,71,0.00,,,0.40,Wunderground v.1.15,2013-06-27 02:00:00,
2013-06-26 21:06:00,79.7,69.5,29.74,SW,236,0.0,8.0,71,0.00,,,0.40,Wunderground v.1.15,2013-06-27 02:06:00,
2013-06-26 21:12:00,79.4,69.2,29.74,West,264,0.0,8.0,71,0.00,,,0.40,Wunderground v.1.15,2013-06-27 02:12:00,
2013-06-26 21:18:00,79.0,68.8,29.74,West,264,0.0,8.0,71,0.00,,,0.40,Wunderground v.1.15,2013-06-27 02:18:00,
2013-06-26 21:24:00,78.7,68.9,29.75,WSW,256,0.0,8.0,72,0.00,,,0.40,Wunderground v.1.15,2013-06-27 02:24:00,
2013-06-26 21:30:00,78.4,68.6,29.75,WSW,256,0.0,8.0,72,0.00,,,0.40,Wunderground v.1.15,2013-06-27 02:30:00,
2013-06-26 21:36:00,78.0,68.6,29.76,WSW,256,0.0,8.0,73,0.00,,,0.40,Wunderground v.1.15,2013-06-27 02:36:00,
2013-06-26 21:42:00,77.5,68.2,29.76,WSW,256,0.0,8.0,73,0.00,,,0.40,Wunderground v.1.15,2013-06-27 02:42:00,
2013-06-26 21:48:00,77.2,68.3,29.76,WSW,256,0.0,8.0,74,0.00,,,0.40,Wunderground v.1.15,2013-06-27 02:48:00,
2013-06-26 21:54:00,76.7,68.2,29.76,WSW,256,0.0,8.0,75,0.00,,,0.40,Wunderground v.1.15,2013-06-27 02:54:00,
2013-06-26 22:00:00,76.3,68.6,29.76,WSW,255,0.0,8.0,77,0.00,,,0.40,Wunderground v.1.15,2013-06-27 03:00:00,
2013-06-26 22:06:00,75.8,68.1,29.77,WSW,256,0.0,8.0,77,0.00,,,0.40,Wunderground v.1.15,2013-06-27 03:06:00,
2013-06-26 22:12:00,75.5,68.2,29.77,WSW,256,0.0,8.0,78,0.00,,,0.40,Wunderground v.1.15,2013-06-27 03:12:00,
2013-06-26 22:18:00,75.1,67.8,29.78,WSW,256,0.0,8.0,78,0.00,,,0.40,Wunderground v.1.15,2013-06-27 03:18:00,
2013-06-26 22:24:00,74.9,67.9,29.77,WSW,256,0.0,8.0,79,0.00,,,0.40,Wunderground v.1.15,2013-06-27 03:24:00,
2013-06-26 22:30:00,74.9,67.6,29.77,WSW,256,0.0,8.0,78,0.00,,,0.40,Wunderground v.1.15,2013-06-27 03:30:00,
2013-06-26 22:36:00,74.8,67.8,29.77,WSW,256,0.0,8.0,79,0.00,,,0.40,Wunderground v.1.15,2013-06-27 03:36:00,
2013-06-26 22:42:00,74.4,67.5,29.77,WSW,256,0.0,8.0,79,0.00,,,0.40,Wunderground v.1.15,2013-06-27 03:42:00,
2013-06-26 22:48:00,74.0,67.4,29.77,WSW,256,0.0,8.0,80,0.00,,,0.40,Wunderground v.1.15,2013-06-27 03:48:00,
2013-06-26 22:54:00,73.7,67.5,29.78,WSW,256,0.0,8.0,81,0.00,,,0.40,Wunderground v.1.15,2013-06-27 03:54:00,
2013-06-26 23:00:00,73.5,67.7,29.78,WSW,256,0.0,8.0,82,0.00,,,0.40,Wunderground v.1.15,2013-06-27 04:00:00,
2013-06-26 23:02:00,73.4,67.6,29.78,WSW,256,0.0,8.0,82,0.00,,,0.40,Wunderground v.1.15,2013-06-27 04:02:00,
2013-06-26 23:04:00,73.2,67.7,29.78,WSW,256,0.0,8.0,83,0.00,,,0.40,Wunderground v.1.15,2013-06-27 04:04:00,
2013-06-26 23:06:00,73.1,67.6,29.78,WSW,256,0.0,8.0,83,0.00,,,0.40,Wunderground v.1.15,2013-06-27 04:06:00,
2013-06-26 23:12:00,72.7,67.2,29.78,WSW,255,0.0,8.0,83,0.00,,,0.40,Wunderground v.1.15,2013-06-27 04:12:00,
2013-06-26 23:18:00,72.5,67.4,29.78,WSW,257,0.0,8.0,84,0.00,,,0.40,Wunderground v.1.15,2013-06-27 04:18:00,
2013-06-26 23:24:00,72.3,67.2,29.78,WSW,256,0.0,8.0,84,0.00,,,0.40,Wunderground v.1.15,2013-06-27 04:24:00,
2013-06-26 23:30:00,72.3,67.5,29.78,WSW,256,0.0,8.0,85,0.00,,,0.40,Wunderground v.1.15,2013-06-27 04:30:00,
2013-06-26 23:36:00,72.5,67.4,29.78,WSW,256,0.0,8.0,84,0.00,,,0.40,Wunderground v.1.15,2013-06-27 04:36:00,
2013-06-26 23:42:00,72.8,67.7,29.78,WSW,257,0.0,8.0,84,0.00,,,0.40,Wunderground v.1.15,2013-06-27 04:42:00,
2013-06-26 23:48:00,73.2,67.7,29.78,WSW,248,0.0,8.0,83,0.00,,,0.40,Wunderground v.1.15,2013-06-27 04:48:00,
2013-06-26 23:54:00,73.5,67.7,29.79,West,260,0.0,8.0,82,0.00,,,0.40,Wunderground v.1.15,2013-06-27 04:54:00,